Regional Weather Roundup
Issued by NWS

Home | Current Version | Previous Version | Text Only | Print | Product List | Glossary Off
Versions: 1 2 3 4 5 6 7 8 9 10 11 12 13 14 15 16 17 18 19 20 21 22 23 24 25 26 27 28 29 30 31 32 33 34 35 36 37 38 39 40 41 42 43 44 45 46 47 48 49 50

000
ASUS44 KMEG 281300
RWRTN
TENNESSEE HOURLY STATE WEATHER ROUNDUP
NATIONAL WEATHER SERVICE MEMPHIS TN
800 AM CDT THU MAY 28 2015

TNZ002-004-019-021-049-052-054-088>092-281400-
WEST TENNESSEE

CITY           SKY/WX    TMP DP  RH WIND       PRES   REMARKS
MEMPHIS INTL   CLOUDY    72  66  81 SE3       30.16S
NWS MEMPHIS      N/A     71 N/A N/A MISG        N/A
JACKSON        CLOUDY    66  64  93 E6        30.19  FOG
DYERSBURG      CLOUDY    66  54  63 CALM      30.18S
PARIS          MOSUNNY   64  64 100 SE5       30.20R
LEXINGTON      MOSUNNY   66  66 100 CALM      30.20R
$$

TNZ008-025-027-028-033-062-065-066-281400-
NORTH MIDDLE TENNESSEE

CITY           SKY/WX    TMP DP  RH WIND       PRES   REMARKS
NASHVILLE      LGT RAIN  69  66  90 CALM      30.23R
CLARKSVILLE    FOG       66  66 100 S3        30.22R VSB 1/4
COOKEVILLE     PTSUNNY   66  64  94 E7G26     30.23R
CROSSVILLE     LGT RAIN  66  61  84 CALM      30.28R
$$

TNZ061-075-076-078-094-096-097-281400-
SOUTH MIDDLE TENNESSEE

CITY           SKY/WX    TMP DP  RH WIND       PRES   REMARKS
FAYETTEVILLE   SUNNY    N/A N/A N/A MISG      30.21S
TULLAHOMA      SUNNY     70  63  78 E3        30.23S
WINCHESTER     MOSUNNY   66  64  94 SE6       30.22S
MCMINNVILLE    PTSUNNY   66  66 100 E3        30.22F
COLUMBIA       MOSUNNY   68  66  94 CALM      30.20R
SHELBYVILLE    CLOUDY    70  66  88 CALM      30.22S
$$

TNZ017-018-042-046-047-281400-
NORTHEAST TENNESSEE

CITY           SKY/WX    TMP DP  RH WIND       PRES   REMARKS
TRI CITIES     MOSUNNY   70  63  78 CALM      30.27R
ELIZABETHTON   SUNNY     68  63  83 CALM      30.28R
$$

TNZ012-013-036-069-073-074-281400-
CENTRAL EAST TENNESSEE

CITY           SKY/WX    TMP DP  RH WIND       PRES   REMARKS
KNOXVILLE      CLOUDY    71  63  75 SE3       30.24R
OAK RIDGE      CLOUDY    70  67  90 CALM      30.26R
GATLINBURG       N/A     72  63  73 NE3       30.24S
$$

TNZ083-085-099-281400-
SOUTHEAST TENNESSEE

CITY           SKY/WX    TMP DP  RH WIND       PRES   REMARKS
CHATTANOOGA    CLOUDY    69  66  90 E3        30.23R
$$

SKY/WX REPORTED AS FAIR MEANS FEW OR NO CLOUDS BELOW
12 THOUSAND FEET.



USA.gov is the U.S. government's official web portal to all federal, state and local government web resources and services.